User: anonymous   Login
Location: Camp at the Woods
(43.2055°N, 93.0905°W)
Time: 05:11:26
(UTC+00:00)
Language:

Cosmos 1076 Rocket - Orbit

View from above orbital plane
View from above orbital plane
View from above satellite
View from above satellite

Ground track
Ground track

The orbit data is extracted from the following two-line orbital elements,

1 11267U 79011B   24108.83729143  .00001695  00000-0  17179-3 0  9996
2 11267  82.5278  31.2569 0015884 198.0889 161.9767 14.90267071447027
Epoch (UTC): 17 April 2024 20:05:41
Eccentricity: 0.0015884
inclination: 82.5278°
perigee height: 586 km
apogee height: 608 km
right ascension of ascending node: 31.2569°
argument of perigee: 198.0889°
revolutions per day: 14.90267071
mean anomaly at epoch: 161.9767°
orbit number at epoch: 44702

The dashed part of the orbit path shows where the satellite is in the earth's shadow,  

DLR